Location: Lane
(33.5226°N, 79.8788°W)
Time: 18:00:12
(UTC+00:00)

Transit 2A - Pass Details

Date: 26 September 2022
Orbit: 598 x 959 km, 66.7° (Epoch: 06 December)

Event Time Altitude Azimuth Distance (km) Brightness Sun altitude
Rises 16:40:35 0° 303° (WNW) 3,060 8.9 54.3°
Reaches altitude 10° 16:45:36 10° 258° (WSW) 2,250 8.6 54.6°
Maximum altitude 16:45:57 10° 254° (WSW) 2,254 8.6 54.6°
Drops below altitude 10° 16:46:18 10° 250° (WSW) 2,266 8.7 54.6°
Sets 16:51:40 0° 207° (SSW) 3,315 9.7 54.8°
